,,PA_Meas_PMT16A,,PR_Meas_QMR101_102,,RH_Meas_QMH101,,SR_Meas_QMS101,,TA_Meas_QMH101,,GenWind,,GenWind,
time,status,PA,status,PR,status,RH,status,SR,status,TA,status,DirAvg,status,SpdAvg,
2012-03-30, 00:00:05,VALID,919.511,VALID,0,VALID,94.477,VALID,0,VALID,20.2863,VALID,16,VALID,0.461719,
2012-03-30, 00:01:05,VALID,919.497,VALID,0,VALID,94.5456,VALID,0,VALID,20.3058,VALID,39,VALID,0.632031,
2012-03-30, 00:02:05,VALID,919.472,VALID,0,VALID,94.5913,VALID,0,VALID,20.2863,VALID,4,VALID,0.735937,
2012-03-30, 00:03:05,VALID,919.475,VALID,0,VALID,94.6295,VALID,0,VALID,20.2668,VALID,353,VALID,0.382422,
2012-03-30, 00:04:05,VALID,919.487,VALID,0,VALID,94.6981,VALID,0,VALID,20.2668,VALID,353,VALID,0.525,
2012-03-30, 00:05:05,VALID,919.527,VALID,0,VALID,94.6676,VALID,0,VALID,20.2653,VALID,353,VALID,0,
2012-03-30, 00:06:05,VALID,919.549,VALID,0,VALID,94.7819,VALID,0,VALID,20.3058,VALID,354,VALID,0.00078125,
2012-03-30, 00:07:05,VALID,919.572,VALID,0,VALID,94.6828,VALID,0,VALID,20.3058,VALID,354,VALID,0.528516,
2012-03-30, 00:08:05,VALID,919.561,VALID,0,VALID,94.6752,VALID,0,VALID,20.2879,VALID,354,VALID,0.826172,
2012-03-30, 00:09:05,VALID,919.581,VALID,0,VALID,94.9039,VALID,0,VALID,20.2668,VALID,14,VALID,1.03477,
2012-03-30, 00:10:05,VALID,919.57,VALID,0,VALID,94.942,VALID,0,VALID,20.2668,VALID,14,VALID,0.958203,
2012-03-30, 00:11:05,VALID,919.546,VALID,0,VALID,95.064,VALID,0,VALID,20.2473,VALID,38,VALID,0.827344,
2012-03-30, 00:12:05,VALID,919.567,VALID,0,VALID,95.125,VALID,0,VALID,20.2668,VALID,4,VALID,0.50625,
2012-03-30, 00:13:05,VALID,919.534,VALID,0,VALID,95.1479,VALID,0,VALID,20.2668,VALID,8,VALID,0.809766,
2012-03-30, 00:14:05,VALID,919.537,VALID,0,VALID,95.2012,VALID,0,VALID,20.3074,VALID,5,VALID,0.253125,
2012-03-30, 00:15:05,VALID,919.522,VALID,0,VALID,95.0945,VALID,0,VALID,20.2863,VALID,5,VALID,0.623828,
2012-03-30, 00:16:05,VALID,919.488,VALID,0,VALID,95.1783,VALID,0,VALID,20.2863,VALID,18,VALID,0.723047,
2012-03-30, 00:17:05,VALID,919.503,VALID,0,VALID,95.1631,VALID,0,VALID,20.2863,VALID,18,VALID,0.555859,
2012-03-30, 00:18:05,VALID,919.48,VALID,0,VALID,95.1555,VALID,0,VALID,20.2668,VALID,18,VALID,0.833594,
2012-03-30, 00:19:05,VALID,919.468,VALID,0,VALID,95.1707,VALID,0,VALID,20.2863,VALID,18,VALID,0.104297,
2012-03-30, 00:20:05,VALID,919.457,VALID,0,VALID,95.1631,VALID,0,VALID,20.3058,VALID,18,VALID,0.989453,
2012-03-30, 00:21:05,VALID,919.452,VALID,0,VALID,95.1326,VALID,0,VALID,20.3253,VALID,18,VALID,0.0761719,
2012-03-30, 00:22:05,VALID,919.442,VALID,0,VALID,95.1326,VALID,0,VALID,20.3253,VALID,18,VALID,0.662109,
2012-03-30, 00:23:05,VALID,919.446,VALID,0,VALID,95.125,VALID,0,VALID,20.3058,VALID,18,VALID,0.753516,
2012-03-30, 00:24:05,VALID,919.452,VALID,0,VALID,95.1326,VALID,0,VALID,20.3464,VALID,18,VALID,0,
2012-03-30, 00:25:05,VALID,919.406,VALID,0,VALID,95.125,VALID,0,VALID,20.3448,VALID,18,VALID,0.778516,
2012-03-30, 00:26:05,VALID,919.413,VALID,0,VALID,95.1097,VALID,0,VALID,20.3253,VALID,18,VALID,0.494922,
2012-03-30, 00:27:05,VALID,919.422,VALID,0,VALID,95.186,VALID,0,VALID,20.3464,VALID,18,VALID,0.270703,
2012-03-30, 00:28:05,VALID,919.41,VALID,0,VALID,95.1707,VALID,0,VALID,20.3659,VALID,18,VALID,0,
2012-03-30, 00:29:05,VALID,919.406,VALID,0,VALID,95.186,VALID,0,VALID,20.3659,VALID,18,VALID,0.2625,
2012-03-30, 00:30:05,VALID,919.388,VALID,0,VALID,95.1021,VALID,0,VALID,20.3448,VALID,18,VALID,0.716797,
2012-03-30, 00:31:05,VALID,919.351,VALID,0,VALID,95.0869,VALID,0,VALID,20.3659,VALID,18,VALID,0.841406,
2012-03-30, 00:32:05,VALID,919.325,VALID,0,VALID,95.0792,VALID,0,VALID,20.3448,VALID,18,VALID,0.854297,
2012-03-30, 00:33:05,VALID,919.328,VALID,0,VALID,94.9573,VALID,0,VALID,20.3253,VALID,4,VALID,0.988281,
2012-03-30, 00:34:05,VALID,919.314,VALID,0,VALID,94.9496,VALID,0,VALID,20.3058,VALID,12,VALID,0.883594,
2012-03-30, 00:35:05,VALID,919.311,VALID,0,VALID,94.9115,VALID,0,VALID,20.3058,VALID,12,VALID,0.00195313,
2012-03-30, 00:36:05,VALID,919.294,VALID,0,VALID,94.9344,VALID,0,VALID,20.2863,VALID,12,VALID,0.433203,
2012-03-30, 00:37:05,VALID,919.268,VALID,0,VALID,94.9649,VALID,0,VALID,20.3058,VALID,12,VALID,0.734375,
2012-03-30, 00:38:05,VALID,919.243,VALID,0,VALID,94.9344,VALID,0,VALID,20.3058,VALID,12,VALID,0.345703,
2012-03-30, 00:39:05,VALID,919.248,VALID,0,VALID,94.9801,VALID,0,VALID,20.3058,VALID,12,VALID,0.816406,
2012-03-30, 00:40:05,VALID,919.206,VALID,0,VALID,94.9725,VALID,0,VALID,20.3058,VALID,12,VALID,0.548047,
2012-03-30, 00:41:05,VALID,919.158,VALID,0,VALID,94.9115,VALID,0,VALID,20.2863,VALID,12,VALID,0.221094,
2012-03-30, 00:42:05,VALID,919.151,VALID,0,VALID,95.003,VALID,0,VALID,20.3074,VALID,35,VALID,1.07891,
2012-03-30, 00:43:05,VALID,919.122,VALID,0,VALID,95.0411,VALID,0,VALID,20.2668,VALID,22,VALID,1.22109,
2012-03-30, 00:44:05,VALID,919.092,VALID,0,VALID,95.1021,VALID,0,VALID,20.2684,VALID,22,VALID,0.951563,
2012-03-30, 00:45:05,VALID,919.079,VALID,0,VALID,95.1479,VALID,0,VALID,20.2684,VALID,22,VALID,0.752734,
2012-03-30, 00:46:05,VALID,919.071,VALID,0,VALID,95.1783,VALID,0,VALID,20.2473,VALID,22,VALID,0.566797,
2012-03-30, 00:47:05,VALID,919.078,VALID,0,VALID,95.2622,VALID,0,VALID,20.2473,VALID,22,VALID,0.426562,
2012-03-30, 00:48:05,VALID,919.065,VALID,0,VALID,95.3003,VALID,0,VALID,20.2473,VALID,22,VALID,0.671094,
2012-03-30, 00:49:05,VALID,919.024,VALID,0,VALID,95.3003,VALID,0,VALID,20.2473,VALID,22,VALID,0,
2012-03-30, 00:50:05,VALID,918.973,VALID,0,VALID,95.2927,VALID,0,VALID,20.2684,VALID,22,VALID,0,
2012-03-30, 00:51:05,VALID,918.994,VALID,0,VALID,95.2622,VALID,0,VALID,20.2668,VALID,22,VALID,0,
2012-03-30, 00:52:05,VALID,918.969,VALID,0,VALID,95.1936,VALID,0,VALID,20.2489,VALID,22,VALID,0,
2012-03-30, 00:53:05,VALID,918.985,VALID,0,VALID,95.186,VALID,0,VALID,20.2489,VALID,22,VALID,0,
2012-03-30, 00:54:05,VALID,918.954,VALID,0,VALID,95.1707,VALID,0,VALID,20.2489,VALID,22,VALID,0,
2012-03-30, 00:55:05,VALID,919.003,VALID,0,VALID,95.2241,VALID,0,VALID,20.2278,VALID,22,VALID,0,
2012-03-30, 00:56:05,VALID,918.975,VALID,0,VALID,95.1936,VALID,0,VALID,20.2489,VALID,22,VALID,0,
2012-03-30, 00:57:05,VALID,918.97,VALID,0,VALID,95.2317,VALID,0,VALID,20.2278,VALID,22,VALID,0,
2012-03-30, 00:58:05,VALID,918.947,VALID,0,VALID,95.247,VALID,0,VALID,20.2278,VALID,22,VALID,0.00195313,
2012-03-30, 00:59:05,VALID,918.935,VALID,0,VALID,95.2698,VALID,0,VALID,20.2278,VALID,22,VALID,0,
2012-03-30, 01:00:05,VALID,918.912,VALID,0,VALID,95.2698,VALID,0,VALID,20.2278,VALID,22,VALID,0,
2012-03-30, 01:01:05,VALID,918.868,VALID,0,VALID,95.2088,VALID,0,VALID,20.2083,VALID,22,VALID,0,
2012-03-30, 01:02:05,VALID,918.867,VALID,0,VALID,95.1097,VALID,0,VALID,20.2293,VALID,22,VALID,0.256641,
2012-03-30, 01:03:05,VALID,918.841,VALID,0,VALID,95.1326,VALID,0,VALID,20.1888,VALID,22,VALID,0.000390625,
2012-03-30, 01:04:05,VALID,918.834,VALID,0,VALID,95.1631,VALID,0,VALID,20.1888,VALID,22,VALID,0.0195313,
2012-03-30, 01:05:05,VALID,918.819,VALID,0,VALID,95.1936,VALID,0,VALID,20.1888,VALID,21,VALID,0.0289063,
2012-03-30, 01:06:05,VALID,918.826,VALID,0,VALID,95.1936,VALID,0,VALID,20.1888,VALID,21,VALID,0.514844,
2012-03-30, 01:07:05,VALID,918.773,VALID,0,VALID,95.186,VALID,0,VALID,20.1693,VALID,21,VALID,0.270703,
2012-03-30, 01:08:05,VALID,918.781,VALID,0,VALID,95.2241,VALID,0,VALID,20.1498,VALID,21,VALID,0,
2012-03-30, 01:09:05,VALID,918.802,VALID,0,VALID,95.2241,VALID,0.107441,VALID,20.1888,VALID,21,VALID,0,
2012-03-30, 01:10:05,VALID,918.793,VALID,0,VALID,95.2012,VALID,0,VALID,20.1678,VALID,21,VALID,0,
2012-03-30, 01:11:05,VALID,918.776,VALID,0,VALID,95.1021,VALID,0.107441,VALID,20.1483,VALID,21,VALID,0,
2012-03-30, 01:12:05,VALID,918.797,VALID,0,VALID,95.0945,VALID,0,VALID,20.0898,VALID,48,VALID,1.2918,
2012-03-30, 01:13:05,VALID,918.78,VALID,0,VALID,95.125,VALID,0.107441,VALID,20.0313,VALID,49,VALID,1.17813,
2012-03-30, 01:14:05,VALID,918.792,VALID,0,VALID,95.2012,VALID,0,VALID,20.0118,VALID,7,VALID,0.569922,
2012-03-30, 01:15:05,VALID,918.81,VALID,0,VALID,95.2393,VALID,0.107441,VALID,20.0118,VALID,52,VALID,1.42656,
2012-03-30, 01:16:05,VALID,918.809,VALID,0,VALID,95.2546,VALID,0,VALID,19.9923,VALID,44,VALID,0.373047,
2012-03-30, 01:17:05,VALID,918.799,VALID,0,VALID,95.3003,VALID,0,VALID,19.9533,VALID,17,VALID,0.965625,
2012-03-30, 01:18:05,VALID,918.759,VALID,0,VALID,95.3842,VALID,0.107441,VALID,19.9743,VALID,23,VALID,1.36875,
2012-03-30, 01:19:05,VALID,918.741,VALID,0,VALID,95.4452,VALID,0,VALID,19.9548,VALID,25,VALID,1.48594,
2012-03-30, 01:20:05,VALID,918.739,VALID,0,VALID,95.4299,VALID,0,VALID,19.9158,VALID,10,VALID,1.38633,
2012-03-30, 01:21:05,VALID,918.718,VALID,0,VALID,95.4909,VALID,0,VALID,19.8948,VALID,10,VALID,0.976172,
2012-03-30, 01:22:05,VALID,918.721,VALID,0,VALID,95.529,VALID,0,VALID,19.8558,VALID,11,VALID,1.39414,
2012-03-30, 01:23:05,VALID,918.737,VALID,0,VALID,95.6129,VALID,0.107441,VALID,19.8558,VALID,355,VALID,1.61367,
2012-03-30, 01:24:05,VALID,918.69,VALID,0,VALID,95.6205,VALID,0,VALID,19.8573,VALID,351,VALID,0.911719,
2012-03-30, 01:25:05,VALID,918.681,VALID,0,VALID,95.6434,VALID,0,VALID,19.8378,VALID,20,VALID,0.822266,
2012-03-30, 01:26:05,VALID,918.642,VALID,0,VALID,95.6739,VALID,0,VALID,19.8378,VALID,360,VALID,0.901953,
2012-03-30, 01:27:05,VALID,918.638,VALID,0,VALID,95.6815,VALID,0,VALID,19.7973,VALID,2,VALID,0.939062,
2012-03-30, 01:28:05,VALID,918.633,VALID,0,VALID,95.712,VALID,0,VALID,19.8198,VALID,2,VALID,1.34336,
2012-03-30, 01:29:05,VALID,918.601,VALID,0,VALID,95.773,VALID,0,VALID,19.8198,VALID,344,VALID,0.6875,
2012-03-30, 01:30:05,VALID,918.643,VALID,0,VALID,95.8263,VALID,0,VALID,19.7793,VALID,16,VALID,0.908594,
2012-03-30, 01:31:05,VALID,918.629,VALID,0,VALID,95.8568,VALID,0,VALID,19.7598,VALID,3,VALID,1.00547,
2012-03-30, 01:32:05,VALID,918.634,VALID,0,VALID,95.895,VALID,0,VALID,19.7598,VALID,23,VALID,0.888672,
2012-03-30, 01:33:05,VALID,918.624,VALID,0,VALID,95.9483,VALID,0,VALID,19.7598,VALID,8,VALID,0.989453,
2012-03-30, 01:34:05,VALID,918.607,VALID,0,VALID,95.9559,VALID,0,VALID,19.7598,VALID,12,VALID,1.20391,
2012-03-30, 01:35:05,VALID,918.601,VALID,0,VALID,95.9941,VALID,0,VALID,19.7403,VALID,2,VALID,1.53984,
2012-03-30, 01:36:05,VALID,918.584,VALID,0,VALID,96.0322,VALID,0,VALID,19.7598,VALID,19,VALID,0.901172,
2012-03-30, 01:37:05,VALID,918.551,VALID,0,VALID,96.0474,VALID,0,VALID,19.7403,VALID,9,VALID,1.26328,
2012-03-30, 01:38:05,VALID,918.555,VALID,0,VALID,96.055,VALID,0,VALID,19.7613,VALID,1,VALID,1.23594,
2012-03-30, 01:39:05,VALID,918.549,VALID,0,VALID,96.0627,VALID,0.107441,VALID,19.7388,VALID,349,VALID,0.853125,
2012-03-30, 01:40:05,VALID,918.55,VALID,0,VALID,96.055,VALID,0,VALID,19.7583,VALID,333,VALID,1.38867,
2012-03-30, 01:41:05,VALID,918.521,VALID,0,VALID,96.0627,VALID,0,VALID,19.7583,VALID,325,VALID,0.511328,
2012-03-30, 01:42:05,VALID,918.518,VALID,0,VALID,96.0932,VALID,0,VALID,19.7583,VALID,324,VALID,0.855859,
2012-03-30, 01:43:05,VALID,918.487,VALID,0,VALID,96.0703,VALID,0,VALID,19.7973,VALID,336,VALID,1.05508,
2012-03-30, 01:44:05,VALID,918.438,VALID,0,VALID,96.0017,VALID,0,VALID,19.7988,VALID,343,VALID,1.04219,
2012-03-30, 01:45:05,VALID,918.396,VALID,0,VALID,96.0017,VALID,0,VALID,19.7793,VALID,343,VALID,0.517969,
2012-03-30, 01:46:05,VALID,918.38,VALID,0,VALID,96.0017,VALID,0,VALID,19.7793,VALID,343,VALID,1.00117,
2012-03-30, 01:47:05,VALID,918.357,VALID,0,VALID,96.0017,VALID,0,VALID,19.7988,VALID,343,VALID,0.811719,
2012-03-30, 01:48:05,VALID,918.272,VALID,0,VALID,95.895,VALID,0,VALID,19.7583,VALID,343,VALID,1.03047,
2012-03-30, 01:49:05,VALID,918.244,VALID,0,VALID,95.8873,VALID,0,VALID,19.7583,VALID,343,VALID,0.837109,
2012-03-30, 01:50:05,VALID,918.183,VALID,0,VALID,95.8492,VALID,0,VALID,19.7403,VALID,343,VALID,0.833984,
2012-03-30, 01:51:04,VALID,918.165,VALID,0,VALID,95.8187,VALID,0,VALID,19.7208,VALID,343,VALID,1.08398,
2012-03-30, 01:52:04,VALID,918.17,VALID,0,VALID,95.834,VALID,0,VALID,19.7208,VALID,343,VALID,1.17539,
2012-03-30, 01:53:04,VALID,918.129,VALID,0,VALID,95.773,VALID,0,VALID,19.7208,VALID,342,VALID,1.08164,
2012-03-30, 01:54:04,VALID,918.064,VALID,0,VALID,95.7425,VALID,0,VALID,19.6998,VALID,342,VALID,0.589844,
2012-03-30, 01:55:04,VALID,918.076,VALID,0,VALID,95.7654,VALID,0,VALID,19.7013,VALID,330,VALID,1.34609,
2012-03-30, 01:56:04,VALID,918.045,VALID,0,VALID,95.7349,VALID,0,VALID,19.7013,VALID,344,VALID,1.00742,
2012-03-30, 01:57:04,VALID,918.054,VALID,0,VALID,95.7349,VALID,0,VALID,19.6818,VALID,42,VALID,1.58828,
2012-03-30, 01:58:04,VALID,918.045,VALID,0,VALID,95.6739,VALID,0,VALID,19.6818,VALID,360,VALID,0.916406,
2012-03-30, 01:59:04,VALID,918.052,VALID,0,VALID,95.651,VALID,0,VALID,19.6818,VALID,360,VALID,0.358594,
2012-03-30, 02:00:04,VALID,918.063,VALID,0,VALID,95.6739,VALID,0,VALID,19.6623,VALID,360,VALID,0.288672,
2012-03-30, 02:01:04,VALID,918.052,VALID,0,VALID,95.6357,VALID,0,VALID,19.6818,VALID,360,VALID,0.488281,
2012-03-30, 02:02:04,VALID,918.085,VALID,0,VALID,95.6662,VALID,0,VALID,19.6818,VALID,360,VALID,0.491016,
2012-03-30, 02:03:04,VALID,918.096,VALID,0,VALID,95.6053,VALID,0.107441,VALID,19.6623,VALID,360,VALID,0.749219,
2012-03-30, 02:04:04,VALID,918.093,VALID,0,VALID,95.5824,VALID,0,VALID,19.6623,VALID,355,VALID,1.2418,
2012-03-30, 02:05:04,VALID,918.063,VALID,0,VALID,95.5595,VALID,0,VALID,19.6623,VALID,355,VALID,0.0683594,
2012-03-30, 02:06:04,VALID,918.073,VALID,0,VALID,95.5443,VALID,0,VALID,19.6608,VALID,332,VALID,0.854688,
2012-03-30, 02:07:04,VALID,918.039,VALID,0,VALID,95.5062,VALID,0,VALID,19.6803,VALID,12,VALID,0.7375,
2012-03-30, 02:08:04,VALID,918.038,VALID,0,VALID,95.4452,VALID,0,VALID,19.6998,VALID,356,VALID,0.737891,
2012-03-30, 02:09:04,VALID,918.026,VALID,0,VALID,95.4071,VALID,0,VALID,19.7013,VALID,341,VALID,0.498437,
2012-03-30, 02:10:04,VALID,918.009,VALID,0,VALID,95.3689,VALID,0,VALID,19.7418,VALID,341,VALID,0.621875,
2012-03-30, 02:11:04,VALID,917.98,VALID,0,VALID,95.3537,VALID,0,VALID,19.7418,VALID,341,VALID,0.0957031,
2012-03-30, 02:12:04,VALID,917.91,VALID,0,VALID,95.3384,VALID,0,VALID,19.7613,VALID,341,VALID,0.04375,
2012-03-30, 02:13:04,VALID,917.914,VALID,0,VALID,95.3003,VALID,0,VALID,19.7613,VALID,341,VALID,0,
2012-03-30, 02:14:04,VALID,917.911,VALID,0,VALID,95.3156,VALID,0,VALID,19.8003,VALID,341,VALID,0,
2012-03-30, 02:15:04,VALID,917.906,VALID,0,VALID,95.3384,VALID,0,VALID,19.8003,VALID,341,VALID,0,
2012-03-30, 02:16:04,VALID,917.93,VALID,0,VALID,95.3384,VALID,0,VALID,19.8003,VALID,341,VALID,0,
2012-03-30, 02:17:04,VALID,917.936,VALID,0,VALID,95.3994,VALID,0,VALID,19.8003,VALID,341,VALID,0,
2012-03-30, 02:18:04,VALID,917.91,VALID,0,VALID,95.4833,VALID,0,VALID,19.8003,VALID,341,VALID,0,
2012-03-30, 02:19:04,VALID,917.928,VALID,0,VALID,95.5519,VALID,0,VALID,19.8003,VALID,341,VALID,0,
2012-03-30, 02:20:04,VALID,917.886,VALID,0,VALID,95.6053,VALID,0,VALID,19.8003,INVALID,360,VALID,0,
2012-03-30, 02:21:04,VALID,917.853,VALID,0,VALID,95.6205,VALID,0,VALID,19.8003,INVALID,360,VALID,0,
2012-03-30, 02:22:04,VALID,917.829,VALID,0,VALID,95.651,VALID,0,VALID,19.7793,VALID,341,VALID,0.383984,
2012-03-30, 02:23:04,VALID,917.785,VALID,0,VALID,95.651,VALID,0,VALID,19.7598,VALID,341,VALID,0.490625,
2012-03-30, 02:24:04,VALID,917.748,VALID,0,VALID,95.6815,VALID,0,VALID,19.7208,INVALID,360,VALID,0,
2012-03-30, 02:25:04,VALID,917.724,VALID,0,VALID,95.6967,VALID,0,VALID,19.7208,INVALID,360,VALID,0,
2012-03-30, 02:26:04,VALID,917.717,VALID,0,VALID,95.7349,VALID,0,VALID,19.6818,VALID,341,VALID,0,
2012-03-30, 02:27:04,VALID,917.72,VALID,0,VALID,95.8263,VALID,0,VALID,19.7028,VALID,341,VALID,0,
2012-03-30, 02:28:04,VALID,917.7,VALID,0,VALID,95.773,VALID,0,VALID,19.6623,VALID,341,VALID,0.526563,
2012-03-30, 02:29:04,VALID,917.637,VALID,0,VALID,95.834,VALID,0,VALID,19.6833,VALID,341,VALID,0,
2012-03-30, 02:30:04,VALID,917.652,VALID,0,VALID,95.8645,VALID,0,VALID,19.7028,VALID,341,VALID,0,
2012-03-30, 02:31:04,VALID,917.575,VALID,0,VALID,95.8187,VALID,0,VALID,19.6623,VALID,341,VALID,0,
2012-03-30, 02:32:04,VALID,917.602,VALID,0,VALID,95.8035,VALID,0,VALID,19.6833,VALID,341,VALID,0,
2012-03-30, 02:33:04,VALID,917.579,VALID,0,VALID,95.8263,VALID,0,VALID,19.6638,VALID,341,VALID,0.281641,
2012-03-30, 02:34:04,VALID,917.599,VALID,0,VALID,95.8873,VALID,0,VALID,19.6428,VALID,341,VALID,0,
2012-03-30, 02:35:04,VALID,917.58,VALID,0,VALID,95.9254,VALID,0,VALID,19.6833,VALID,341,VALID,0,
2012-03-30, 02:36:04,VALID,917.556,VALID,0,VALID,95.9483,VALID,0,VALID,19.6833,INVALID,360,VALID,0,
2012-03-30, 02:37:04,VALID,917.534,VALID,0,VALID,95.9864,VALID,0,VALID,19.7028,VALID,341,VALID,0,
2012-03-30, 02:38:04,VALID,917.523,VALID,0,VALID,95.9941,VALID,0,VALID,19.7028,VALID,341,VALID,0,
2012-03-30, 02:39:04,VALID,917.524,VALID,0,VALID,96.0398,VALID,0,VALID,19.7208,VALID,341,VALID,0,
2012-03-30, 02:40:04,VALID,917.525,VALID,0,VALID,96.0398,VALID,0,VALID,19.7208,VALID,341,VALID,0,
2012-03-30, 02:41:04,VALID,917.506,VALID,0,VALID,95.9941,VALID,0,VALID,19.7208,VALID,341,VALID,0,
2012-03-30, 02:42:04,VALID,917.485,VALID,0,VALID,96.0093,VALID,0,VALID,19.7013,VALID,341,VALID,0,
2012-03-30, 02:43:04,VALID,917.426,VALID,0,VALID,95.9483,VALID,0,VALID,19.6818,VALID,341,VALID,0,
2012-03-30, 02:44:04,VALID,917.402,VALID,0,VALID,95.9864,VALID,0,VALID,19.7028,VALID,341,VALID,0,
2012-03-30, 02:45:04,VALID,917.392,VALID,0,VALID,96.0093,VALID,0,VALID,19.6428,VALID,341,VALID,0.405859,
2012-03-30, 02:46:04,VALID,917.388,VALID,0,VALID,96.0855,VALID,0,VALID,19.6443,VALID,341,VALID,0.811328,
2012-03-30, 02:47:04,VALID,917.359,VALID,0,VALID,96.116,VALID,0,VALID,19.6233,VALID,341,VALID,0.00664063,
2012-03-30, 02:48:04,VALID,917.378,VALID,0,VALID,96.0855,VALID,0,VALID,19.6038,VALID,343,VALID,0.297266,
2012-03-30, 02:49:04,VALID,917.367,VALID,0,VALID,96.0627,VALID,0,VALID,19.6038,VALID,343,VALID,0,
2012-03-30, 02:50:04,VALID,917.355,VALID,0,VALID,96.0398,VALID,0,VALID,19.6053,VALID,343,VALID,0.224219,
2012-03-30, 02:51:04,VALID,917.362,VALID,0,VALID,96.0093,VALID,0,VALID,19.5648,VALID,343,VALID,0.168359,
2012-03-30, 02:52:04,VALID,917.351,VALID,0,VALID,96.0093,VALID,0,VALID,19.5258,VALID,5,VALID,0.6125,
2012-03-30, 02:53:04,VALID,917.32,VALID,0,VALID,96.0703,VALID,0,VALID,19.5258,VALID,13,VALID,0.76875,
2012-03-30, 02:54:04,VALID,917.288,VALID,0,VALID,96.1465,VALID,0,VALID,19.5258,VALID,13,VALID,0.694922,
2012-03-30, 02:55:04,VALID,917.292,VALID,0,VALID,96.1846,VALID,0.107441,VALID,19.5048,VALID,13,VALID,0.478516,
2012-03-30, 02:56:04,VALID,917.304,VALID,0,VALID,96.2075,VALID,0,VALID,19.5258,VALID,13,VALID,0.314453,
2012-03-30, 02:57:04,VALID,917.297,VALID,0,VALID,96.2304,VALID,0.107441,VALID,19.5453,VALID,13,VALID,0,
2012-03-30, 02:58:04,VALID,917.253,VALID,0,VALID,96.1618,VALID,0,VALID,19.5063,VALID,13,VALID,0,
2012-03-30, 02:59:04,VALID,917.204,VALID,0,VALID,96.1846,VALID,0.107441,VALID,19.5063,VALID,13,VALID,0,
2012-03-30, 03:00:04,VALID,917.183,VALID,0,VALID,96.2075,VALID,0,VALID,19.5063,VALID,13,VALID,0,
2012-03-30, 03:01:04,VALID,917.152,VALID,0,VALID,96.2685,VALID,0.107441,VALID,19.5063,VALID,13,VALID,0,
2012-03-30, 03:02:04,VALID,917.114,VALID,0,VALID,96.2456,VALID,0,VALID,19.4658,VALID,13,VALID,0.380859,
2012-03-30, 03:03:04,VALID,917.111,VALID,0,VALID,96.2837,VALID,0,VALID,19.4868,VALID,13,VALID,0,
2012-03-30, 03:04:04,VALID,917.123,VALID,0,VALID,96.2609,VALID,0,VALID,19.4673,VALID,13,VALID,0,
2012-03-30, 03:05:04,VALID,917.12,VALID,0,VALID,96.2914,VALID,0,VALID,19.4478,VALID,13,VALID,0,
2012-03-30, 03:06:04,VALID,917.102,VALID,0,VALID,96.2685,VALID,0,VALID,19.4478,VALID,13,VALID,0,
2012-03-30, 03:07:04,VALID,917.108,VALID,0,VALID,96.299,VALID,0,VALID,19.4478,VALID,13,VALID,0,
2012-03-30, 03:08:04,VALID,917.074,VALID,0,VALID,96.2761,VALID,0,VALID,19.4283,VALID,13,VALID,0,
2012-03-30, 03:09:04,VALID,917.097,VALID,0,VALID,96.2685,VALID,0,VALID,19.4088,VALID,13,VALID,0,
2012-03-30, 03:10:04,VALID,917.115,VALID,0,VALID,96.3142,VALID,0.107441,VALID,19.4088,VALID,13,VALID,0,
2012-03-30, 03:11:04,VALID,917.118,VALID,0,VALID,96.3295,VALID,0.107441,VALID,19.4283,VALID,13,VALID,0,
2012-03-30, 03:12:04,VALID,917.105,VALID,0,VALID,96.3371,VALID,0.107441,VALID,19.4478,VALID,13,VALID,0,
2012-03-30, 03:13:04,VALID,917.103,VALID,0,VALID,96.3524,VALID,0,VALID,19.4478,VALID,13,VALID,0,
2012-03-30, 03:14:04,VALID,917.084,VALID,0,VALID,96.2761,VALID,0,VALID,19.4283,VALID,13,VALID,0,
2012-03-30, 03:15:04,VALID,917.101,VALID,0,VALID,96.2456,VALID,0.107441,VALID,19.3893,VALID,13,VALID,0,
2012-03-30, 03:16:04,VALID,917.122,VALID,0,VALID,96.3447,VALID,0,VALID,19.3893,VALID,13,VALID,0,
2012-03-30, 03:17:04,VALID,917.104,VALID,0,VALID,96.3981,VALID,0.107441,VALID,19.4088,VALID,13,VALID,0,
2012-03-30, 03:18:04,VALID,917.062,VALID,0,VALID,96.4667,VALID,0,VALID,19.4088,VALID,325,VALID,0.0164062,
2012-03-30, 03:19:04,VALID,917.06,VALID,0,VALID,96.5277,VALID,0,VALID,19.4074,VALID,336,VALID,0.21875,
2012-03-30, 03:20:04,VALID,917.056,VALID,0,VALID,96.5734,VALID,0,VALID,19.4478,VALID,348,VALID,0.463281,
2012-03-30, 03:21:04,VALID,917.056,VALID,0,VALID,96.6268,VALID,0,VALID,19.4673,VALID,350,VALID,0.490234,
2012-03-30, 03:22:04,VALID,917.012,VALID,0,VALID,96.6115,VALID,0,VALID,19.4868,VALID,350,VALID,0,
2012-03-30, 03:23:04,VALID,917.043,VALID,0,VALID,96.6192,VALID,0,VALID,19.4868,VALID,350,VALID,0,
2012-03-30, 03:24:04,VALID,917.057,VALID,0,VALID,96.6344,VALID,0,VALID,19.4853,VALID,350,VALID,0.0015625,
2012-03-30, 03:25:04,VALID,917.044,VALID,0,VALID,96.5887,VALID,0,VALID,19.5258,VALID,350,VALID,0.217578,
2012-03-30, 03:26:04,VALID,917.056,VALID,0,VALID,96.5887,VALID,0,VALID,19.5063,VALID,357,VALID,1.18711,
2012-03-30, 03:27:04,VALID,917.074,VALID,0,VALID,96.6344,VALID,0.107441,VALID,19.5258,VALID,26,VALID,0.695313,
2012-03-30, 03:28:04,VALID,917.109,VALID,0,VALID,96.6115,VALID,0.107441,VALID,19.4868,VALID,26,VALID,0.236328,
2012-03-30, 03:29:04,VALID,917.121,VALID,0,VALID,96.6497,VALID,0,VALID,19.4868,VALID,26,VALID,0,
2012-03-30, 03:30:04,VALID,917.112,VALID,0,VALID,96.703,VALID,0,VALID,19.4868,VALID,26,VALID,0,
2012-03-30, 03:31:04,VALID,917.134,VALID,0,VALID,96.6878,VALID,0,VALID,19.5063,VALID,26,VALID,0.834766,
2012-03-30, 03:32:04,VALID,917.092,VALID,0,VALID,96.7107,VALID,0,VALID,19.5063,VALID,8,VALID,0.878125,
2012-03-30, 03:33:04,VALID,917.127,VALID,0,VALID,96.703,VALID,0.107441,VALID,19.4868,VALID,16,VALID,1.09453,
2012-03-30, 03:34:04,VALID,917.134,VALID,0,VALID,96.6725,VALID,0,VALID,19.4463,VALID,17,VALID,1.46211,
2012-03-30, 03:35:04,VALID,917.166,VALID,0,VALID,96.6649,VALID,0,VALID,19.4268,VALID,17,VALID,0.342969,
2012-03-30, 03:36:04,VALID,917.194,VALID,0,VALID,96.7107,VALID,0.107441,VALID,19.4478,VALID,17,VALID,0.795703,
2012-03-30, 03:37:04,VALID,917.214,VALID,0,VALID,96.7259,VALID,0,VALID,19.4673,VALID,17,VALID,0.592578,
2012-03-30, 03:38:04,VALID,917.172,VALID,0,VALID,96.6573,VALID,0,VALID,19.4478,VALID,17,VALID,0.865625,
2012-03-30, 03:39:04,VALID,917.191,VALID,0,VALID,96.6497,VALID,0,VALID,19.4088,VALID,17,VALID,0.664063,
2012-03-30, 03:40:04,VALID,917.17,VALID,0,VALID,96.6802,VALID,0,VALID,19.4103,VALID,17,VALID,0.631641,
2012-03-30, 03:41:04,VALID,917.178,VALID,0,VALID,96.6649,VALID,0,VALID,19.3908,VALID,17,VALID,0.407813,
2012-03-30, 03:42:04,VALID,917.222,VALID,0,VALID,96.7183,VALID,0,VALID,19.3713,VALID,17,VALID,0.451953,
2012-03-30, 03:43:04,VALID,917.259,VALID,0,VALID,96.7411,VALID,0,VALID,19.3518,VALID,17,VALID,0.369141,
2012-03-30, 03:44:04,VALID,917.253,VALID,0,VALID,96.7793,VALID,0,VALID,19.3323,VALID,17,VALID,0.513281,
2012-03-30, 03:45:04,VALID,917.299,VALID,0,VALID,96.7793,VALID,0,VALID,19.3518,VALID,17,VALID,0.4875,
2012-03-30, 03:46:04,VALID,917.302,VALID,0,VALID,96.7869,VALID,0,VALID,19.3518,VALID,17,VALID,0.101563,
2012-03-30, 03:47:04,VALID,917.331,VALID,0,VALID,96.8174,VALID,0,VALID,19.3518,VALID,17,VALID,0.189844,
2012-03-30, 03:48:04,VALID,917.334,VALID,0,VALID,96.8403,VALID,0,VALID,19.3308,VALID,17,VALID,0.380469,
2012-03-30, 03:49:04,VALID,917.328,VALID,0,VALID,96.8326,VALID,0,VALID,19.3518,VALID,17,VALID,0,